Location: Cheching
(60.0667°N, 164.2167°W)
Time: 10:28:17
(UTC+00:00)

NOAA 19 - Pass Details

Date: 20 January 2021
Orbit: 840 x 862 km, 99.2° (Epoch: 26 February)

Event Time Altitude Azimuth Distance (km) Brightness Sun altitude
Rises 05:21:45 0° 188° (S) 3,431 8.6 -19.0°
Reaches altitude 10° 05:24:19 10° 197° (SSW) 2,497 7.9 -19.3°
Maximum altitude 05:29:25 37° 264° (W) 1,314 6.8 -20.0°
Drops below altitude 10° 05:34:34 10° 331° (NNW) 2,502 7.9 -20.6°
Sets 05:37:08 0° 340° (NNW) 3,439 8.6 -20.9°
